[[{"header":{"parameterUnit":"m.s-1","parameterCategory":1,"la1":30.2991,"la2":30.254,"lo1":-89.0895,"lo2":-89.0444,"dy":0.0017,"dx":0.0017,"nx":28,"ny":28,"refTime":"2024-06-13T09:00:00:Z","depth":0,"parameterNumber":2,"parameterNumberName":"U-component_of_WINDS"},"data":[0,0,0,0,0,0,0,0,0,0,0,0,0,0,0,0,0,0,0,0,0,0,0,0,0,0,0,0,0,0,0,0,0,0,0,0,0,0,0,0,0,0,0,0,0,0,0,0,0,0,0,0,0,0,0,0,0,0,0.2412,0.2413,0,0.2476,0.2477,0.2478,0.2522,0.2522,0.2522,0.2523,0.2587,0.2589,0.259,0,0,0,0,0,0,0,0,0,0,0,0,0,0.2326,0.2328,0.2412,0.2413,0.2414,0.2476,0.2477,0.2478,0.2522,0.2522,0.2522,0.2523,0.2587,0.2588,0.259,0,0,0,0,0,0,0,0,0,0,0,0,0,0.2374,0.2328,0.2412,0.2443,0.2447,0.2476,0.2477,0.2478,0.2522,0.2522,0.2523,0.2523,0.2586,0.2588,0.259,0.2593,0,0,0.2597,0.2598,0,0,0,0,0,0,0,0,0.2372,0.2377,0.2438,0.2441,0.2445,0.2491,0.247,0.2517,0.2521,0.2493,0.2523,0.2523,0.2555,0.256,0.257,0.2596,0.2599,0.2597,0.2598,0.2599,0.26,0,0,0,0,0,0,0,0.2368,0.2375,0.2437,0.2439,0.2443,0.2453,0.2461,0.2479,0.252,0.2496,0.2499,0.2506,0.2557,0.2568,0.2572,0.26,0.2597,0.2599,0.26,0.2601,0.2631,0.2631,0,0,0,0,0,0,0.236,0.2372,0.2435,0.2439,0.2409,0.2455,0.2463,0.2476,0.252,0.2528,0.2505,0.2508,0.2564,0.257,0.2575,0.2581,0.2599,0.2601,0.2602,0.2632,0.2631,0.2631,0,0,0,0,0,0,0.2358,0.2365,0.2433,0.2407,0.2416,0.2456,0.247,0.2477,0.2488,0.2528,0.2535,0.251,0.2565,0.2572,0.2588,0.2584,0.2602,0.2604,0.2632,0.2631,0.2631,0.2593,0,0,0,0,0,0,0.2355,0.2364,0.2366,0.2406,0.2417,0.2445,0.247,0.2478,0.2492,0.2496,0.2534,0.254,0.2566,0.2585,0.259,0.2587,0.2606,0.2633,0.2632,0.2631,0.2595,0.2591,0.2588,0,0,0,0,0,0.2352,0.2353,0.2366,0.2373,0.242,0.2445,0.2451,0.2481,0.2492,0.2493,0.2519,0.2539,0.2583,0.2586,0.2593,0.259,0.2633,0.2632,0.2631,0.2596,0.2592,0.2588,0,0,0,0,0,0,0.2311,0.2359,0.2374,0.2388,0.2412,0.2452,0.2456,0.2475,0.2497,0.2499,0.2535,0.2543,0.2556,0.2575,0.2577,0.2595,0.2611,0.2611,0.2582,0.2578,0.2575,0.2569,0.2607,0,0,0,0,0,0.2303,0.232,0.2361,0.2369,0.238,0.2416,0.2428,0.2449,0.2475,0.2486,0.2512,0.2537,0.2556,0.2568,0.2588,0.2598,0.2606,0.2599,0.2595,0.2592,0.2592,0.2598,0.2595,0.2627,0.2627,0.2627,0,0,0.2288,0.2316,0.2324,0.2361,0.2383,0.2398,0.2424,0.244,0.2452,0.2488,0.2505,0.2525,0.2555,0.2568,0.2575,0.2584,0.2585,0.2591,0.2588,0.259,0.2596,0.2593,0.259,0.2626,0.2627,0.2627,0,0,0.2268,0.2291,0.23,0.2321,0.2353,0.2377,0.2379,0.2417,0.2431,0.2449,0.2477,0.2491,0.2524,0.2544,0.2559,0.2546,0.2565,0.2551,0.2533,0.2538,0.2536,0.2534,0.2528,0.2526,0.2551,0.2551,0.2551,0,0.2244,0.227,0.2302,0.2316,0.2331,0.2365,0.2374,0.2393,0.2429,0.2439,0.2449,0.249,0.2513,0.2531,0.2528,0.2538,0.2541,0.2547,0.2533,0.2532,0.253,0.2526,0.2524,0.2549,0.2549,0.2549,0.255,0,0.2239,0.2256,0.2259,0.2294,0.231,0.2321,0.2355,0.2367,0.2386,0.2409,0.2426,0.2455,0.2481,0.2487,0.2506,0.2507,0.2511,0.2527,0.2543,0.2525,0.2521,0.2519,0.2546,0.2547,0.2547,0.2548,0,0,0.2194,0.2247,0.2247,0.2263,0.2301,0.2315,0.2328,0.2354,0.2363,0.2387,0.2398,0.2425,0.244,0.2456,0.2478,0.2483,0.247,0.2498,0.2499,0.2491,0.2472,0.246,0.2457,0.2483,0.2483,0.2483,0.2469,0,0.2179,0.2204,0.2234,0.2248,0.2264,0.2296,0.2308,0.2332,0.2353,0.2369,0.2393,0.2411,0.2429,0.2439,0.2445,0.247,0.2466,0.2472,0.2493,0.2494,0.2484,0.2455,0.2442,0.2428,0.2468,0.2468,0.2468,0,0.2165,0.2188,0.2204,0.224,0.2248,0.2257,0.2283,0.2299,0.2327,0.2342,0.236,0.2383,0.2398,0.2413,0.2433,0.2436,0.2447,0.246,0.2461,0.2463,0.2479,0.2456,0.2424,0.2422,0.2466,0.2466,0.2466,0,0.2129,0.2164,0.2178,0.2191,0.2234,0.224,0.2258,0.2286,0.23,0.2323,0.2332,0.2356,0.2368,0.2386,0.2415,0.2424,0.2432,0.245,0.2445,0.2444,0.2444,0.2444,0.2413,0.2452,0.2452,0.2452,0.2452,0,0.2109,0.2118,0.2163,0.2172,0.2182,0.2216,0.2225,0.2246,0.2271,0.2284,0.2313,0.2325,0.2363,0.2378,0.2401,0.2414,0.242,0.2432,0.2438,0.2429,0.2427,0.2436,0.2437,0.2452,0.2452,0.2452,0.2452,0,0.2071,0.2102,0.2119,0.2159,0.2169,0.2174,0.2208,0.2217,0.224,0.2256,0.2262,0.2298,0.2318,0.2349,0.2378,0.2393,0.2402,0.2412,0.2392,0.2396,0.2389,0.2388,0.2361,0.2359,0.2401,0.24,0.24,0,0.2056,0.2063,0.2103,0.2114,0.2131,0.2148,0.2162,0.2196,0.2209,0.2241,0.2246,0.2269,0.2288,0.2319,0.2347,0.237,0.238,0.2369,0.2384,0.2374,0.2379,0.2378,0.2379,0.2365,0.2365,0.2364,0.2364,0,0.2025,0.204,0.2059,0.2084,0.21,0.212,0.2143,0.215,0.2188,0.2201,0.2222,0.2237,0.2267,0.2289,0.2315,0.2334,0.2355,0.2359,0.2359,0.235,0.2338,0.2343,0.2382,0.236,0.236,0.236,0.2361,0.2361,0.1997,0.2005,0.2034,0.2055,0.2075,0.2095,0.2106,0.213,0.2148,0.2175,0.2194,0.2214,0.2241,0.2279,0.2296,0.2311,0.2321,0.232,0.232,0.232,0.2316,0.2336,0.2316,0.2317,0.2317,0.2317,0.2317,0,0.1968,0.1988,0.2006,0.2037,0.2052,0.2072,0.2097,0.2109,0.2126,0.215,0.2169,0.2192,0.2214,0.2244,0.2267,0.2274,0.2284,0.2279,0.2278,0.2282,0.2307,0.2304,0.227,0.227,0.227,0.227,0.227,0.227,0.1954,0.1968,0.1986,0.201,0.2031,0.205,0.2063,0.2082,0.2101,0.2126,0.2144,0.2164,0.219,0.2215,0.2235,0.2244,0.2251,0.2242,0.2253,0.2276,0.228,0.2284,0.2282,0.2243,0.2243,0.2227,0.2227,0.2226]},{"header":{"parameterUnit":"m.s-1","parameterCategory":1,"la1":30.2991,"la2":30.254,"lo1":-89.0895,"lo2":-89.0444,"dy":0.0017,"dx":0.0017,"nx":28,"ny":28,"refTime":"2024-06-13T09:00:00:Z","depth":0,"parameterNumber":3,"parameterNumberName":"V-component_of_WINDS"},"data":[0,0,0,0,0,0,0,0,0,0,0,0,0,0,0,0,0,0,0,0,0,0,0,0,0,0,0,0,0,0,0,0,0,0,0,0,0,0,0,0,0,0,0,0,0,0,0,0,0,0,0,0,0,0,0,0,0,0,0.115,0.1149,0,0.1062,0.1061,0.106,0.1022,0.1023,0.1023,0.1023,0.0931,0.0929,0.0926,0,0,0,0,0,0,0,0,0,0,0,0,0,0.1285,0.1282,0.115,0.1149,0.1148,0.1062,0.1061,0.106,0.1022,0.1023,0.1023,0.1023,0.0932,0.0929,0.0926,0,0,0,0,0,0,0,0,0,0,0,0,0,0.1214,0.1282,0.115,0.1119,0.1115,0.1062,0.1061,0.1059,0.1022,0.1023,0.1023,0.1023,0.0933,0.0929,0.0926,0.0897,0,0,0.0914,0.0912,0,0,0,0,0,0,0,0,0.1218,0.1209,0.1124,0.1121,0.1117,0.1053,0.1075,0.1005,0.1022,0.1057,0.1023,0.1023,0.0972,0.0965,0.0948,0.0893,0.0889,0.0913,0.0911,0.0909,0.0908,0,0,0,0,0,0,0,0.1223,0.1213,0.1115,0.1123,0.1118,0.1109,0.1099,0.1061,0.1014,0.1054,0.1052,0.1042,0.097,0.0951,0.0945,0.0887,0.0914,0.091,0.0908,0.0906,0.0804,0.0804,0,0,0,0,0,0,0.1233,0.1217,0.1118,0.1112,0.1169,0.1106,0.1095,0.1073,0.1015,0.1006,0.1042,0.104,0.0958,0.095,0.0942,0.0904,0.0909,0.0906,0.0904,0.0805,0.0804,0.0804,0,0,0,0,0,0,0.1237,0.1225,0.1121,0.1164,0.115,0.1104,0.1079,0.1072,0.1053,0.1005,0.0996,0.1032,0.0958,0.0947,0.0908,0.09,0.0904,0.0901,0.0805,0.0804,0.0804,0.0828,0,0,0,0,0,0,0.1241,0.1226,0.1215,0.1164,0.1148,0.109,0.1079,0.107,0.1047,0.1044,0.0993,0.0985,0.0957,0.0914,0.0905,0.0895,0.0897,0.0805,0.0805,0.0804,0.0828,0.0829,0.0829,0,0,0,0,0,0.1246,0.1225,0.1215,0.1203,0.1133,0.1089,0.108,0.1049,0.1046,0.1035,0.1004,0.0987,0.0903,0.0911,0.0899,0.0888,0.0806,0.0805,0.0804,0.0828,0.0828,0.0829,0,0,0,0,0,0,0.1276,0.1218,0.1206,0.1168,0.1134,0.1083,0.1067,0.1051,0.1016,0.1015,0.0977,0.0966,0.093,0.0906,0.0915,0.0857,0.0853,0.085,0.0875,0.0875,0.0876,0.0882,0.0894,0,0,0,0,0,0.1278,0.1248,0.1199,0.1171,0.1154,0.1114,0.1094,0.1073,0.1035,0.1021,0.0987,0.0951,0.0917,0.0895,0.086,0.0825,0.0813,0.0811,0.0812,0.0813,0.081,0.0789,0.0788,0.0801,0.0801,0.0801,0,0,0.1283,0.1247,0.123,0.1176,0.1147,0.1116,0.1102,0.107,0.1046,0.1016,0.0977,0.0951,0.0908,0.0871,0.0853,0.0849,0.0804,0.0812,0.0813,0.0809,0.0788,0.0787,0.0786,0.08,0.08,0.08,0,0,0.1275,0.1245,0.1218,0.119,0.1147,0.112,0.1114,0.1065,0.1047,0.1008,0.0984,0.0956,0.0897,0.0868,0.0845,0.0827,0.081,0.0817,0.082,0.08,0.0799,0.0798,0.0791,0.0789,0.0815,0.0815,0.0815,0,0.1286,0.1239,0.1207,0.1176,0.1152,0.1124,0.1096,0.107,0.1018,0.1002,0.0999,0.0925,0.0895,0.085,0.0846,0.0829,0.082,0.0822,0.0802,0.08,0.0799,0.0792,0.0789,0.0816,0.0816,0.0816,0.0816,0,0.1254,0.1222,0.1205,0.1156,0.113,0.1101,0.1065,0.1043,0.1025,0.0998,0.0958,0.0921,0.0879,0.0867,0.0848,0.0819,0.0818,0.0809,0.0804,0.0799,0.0792,0.0789,0.0818,0.0817,0.0817,0.0817,0,0,0.1262,0.1195,0.119,0.1167,0.1117,0.1092,0.1061,0.102,0.1002,0.0967,0.0941,0.0892,0.0884,0.0858,0.0836,0.0819,0.0806,0.0811,0.081,0.0811,0.0772,0.0778,0.0776,0.0795,0.0795,0.0794,0.0775,0,0.1246,0.1191,0.1162,0.1119,0.1088,0.1062,0.1035,0.1002,0.0977,0.0947,0.0919,0.0885,0.0876,0.0861,0.0842,0.0812,0.0798,0.0813,0.0769,0.0768,0.078,0.0772,0.0779,0.0762,0.0772,0.0771,0.0771,0,0.1221,0.1187,0.1141,0.1095,0.1081,0.1058,0.1018,0.0991,0.0952,0.0935,0.0907,0.0886,0.0852,0.085,0.0804,0.0815,0.0795,0.0778,0.0776,0.077,0.0769,0.0765,0.0756,0.0754,0.0766,0.0767,0.0767,0,0.1231,0.1173,0.1138,0.112,0.1065,0.105,0.1026,0.0988,0.0966,0.0931,0.0916,0.0877,0.0856,0.0827,0.0796,0.0797,0.0752,0.0747,0.0736,0.0737,0.0727,0.0728,0.0714,0.0716,0.0716,0.0716,0.0716,0,0.1216,0.1189,0.1142,0.112,0.1089,0.1056,0.1026,0.1,0.0967,0.0939,0.0914,0.0889,0.0849,0.0819,0.0794,0.0759,0.075,0.0735,0.0728,0.0737,0.0738,0.0723,0.0723,0.0716,0.0716,0.0716,0.0716,0,0.1221,0.1188,0.1148,0.1101,0.1088,0.1067,0.1026,0.1004,0.0978,0.0944,0.0934,0.0893,0.0856,0.0822,0.0773,0.0756,0.0721,0.0713,0.0734,0.073,0.072,0.0722,0.0696,0.069,0.0697,0.0697,0.0697,0,0.1213,0.1192,0.1142,0.1122,0.11,0.1068,0.1045,0.1011,0.0988,0.0943,0.0927,0.0888,0.0856,0.0798,0.0764,0.0726,0.0717,0.071,0.0711,0.072,0.0716,0.0717,0.0714,0.071,0.0711,0.0711,0.0711,0,0.1203,0.1188,0.1156,0.1119,0.1092,0.1061,0.1028,0.1013,0.0974,0.0949,0.0912,0.0887,0.0837,0.0799,0.0758,0.0733,0.0715,0.0711,0.0706,0.0714,0.0726,0.0719,0.0734,0.0711,0.0711,0.0711,0.0711,0.0711,0.1201,0.1181,0.1142,0.1107,0.108,0.1051,0.1027,0.0999,0.0967,0.0924,0.0907,0.0869,0.0831,0.0773,0.0749,0.0719,0.0715,0.0708,0.0706,0.0705,0.0706,0.0733,0.0711,0.0711,0.0711,0.0711,0.0711,0,0.1189,0.1163,0.1132,0.1087,0.106,0.1047,0.101,0.0988,0.0955,0.0922,0.089,0.0847,0.081,0.0773,0.0735,0.0717,0.0708,0.0708,0.0708,0.0703,0.0712,0.072,0.0716,0.0716,0.0716,0.0716,0.0716,0.0716,0.1179,0.1144,0.1125,0.1075,0.105,0.1013,0.0993,0.0966,0.0939,0.0892,0.0861,0.0838,0.0803,0.0761,0.0727,0.0717,0.0703,0.0706,0.0693,0.0702,0.0702,0.0702,0.0709,0.0703,0.0703,0.0686,0.0686,0.0686]}]]